Starlink 11292

operational
NORAD ID: 61203 Int'l Des: 2024-171 Owner: SPXS Country: US Constellation: starlink
LEOCIRCULAR

Starlink 11292について

説明を読み込み中...

リアルタイム位置

3D地球を読み込み中...

次回通過

高度履歴

Altitude vs Time

uPlot chart will show altitude changes over time

軌道要素

1 61203U 24171D 25352.03493957 -.00000742 00000-0 -12697-5 0 9999
2 61203 53.1586 218.8117 0000870 74.8454 285.2660 15.69709727 71579
Epoch: Dec 18, 2025 • Age: 17 hours

現在のステータス

高度 360.1 km
速度 7.69 km/s
衛星直下点 3.10°N, 134.87°W
打ち上げ日 Sep 20, 2024
運用期間 1.2 years
タイプ internet

技術仕様

分類 Payload
質量 960.00 kg
乾燥質量 910.00 kg
総質量 960.00 kg
長さ 0.30 m
直径 4.10 m
スパン 29.00 m
形状 Box + pan
製造者 SPXS
バスタイプ Starlink V2MD
フェーズステータス In Orbit
所有者/国 SPXS/US

大規模コンステレーション

Loading constellations...